owner,sensor,date,latitude,longitude,vertical_datum,wind_speed,wind_to_direction,wind_speed_of_gust,qcFlag 
SCCF RECON,ioos:station:SCCF:53:1,2015-12-01T00:00:00Z,26.6493,-81.8810,2.11,3.1,66.0,-9999.0,'1111122,1111122,1111122' 
SCCF RECON,ioos:station:SCCF:53:1,2015-12-01T00:15:00Z,26.6493,-81.8810,2.11,3.8,58.7,-9999.0,'1111122,1111122,1111122' 
SCCF RECON,ioos:station:SCCF:53:1,2015-12-01T00:30:00Z,26.6493,-81.8810,2.11,3.1,52.5,-9999.0,'1111122,1111122,1111122' 
SCCF RECON,ioos:station:SCCF:53:1,2015-12-01T00:45:00Z,26.6493,-81.8810,2.11,4.1,72.2,-9999.0,'1111122,1111122,1111122' 
SCCF RECON,ioos:station:SCCF:53:1,2015-12-01T01:00:00Z,26.6493,-81.8810,2.11,3.7,45.6,-9999.0,'1111122,1111122,1111122' 
SCCF RECON,ioos:station:SCCF:53:1,2015-12-01T01:15:00Z,26.6493,-81.8810,2.11,3.8,51.4,-9999.0,'1111122,1111122,1111122' 
SCCF RECON,ioos:station:SCCF:53:1,2015-12-01T01:30:00Z,26.6493,-81.8810,2.11,4.3,72.2,-9999.0,'1111122,1111122,1111122' 
SCCF RECON,ioos:station:SCCF:53:1,2015-12-01T01:45:00Z,26.6493,-81.8810,2.11,3.8,57.9,-9999.0,'1111122,1111122,1111122' 
SCCF RECON,ioos:station:SCCF:53:1,2015-12-01T02:00:00Z,26.6493,-81.8810,2.11,3.0,73.7,-9999.0,'1111122,1111122,1111122' 
SCCF RECON,ioos:station:SCCF:53:1,2015-12-01T02:15:00Z,26.6493,-81.8810,2.11,2.9,49.9,-9999.0,'1111122,1111122,1111122' 
SCCF RECON,ioos:station:SCCF:53:1,2015-12-01T02:30:00Z,26.6493,-81.8810,2.11,3.1,77.7,-9999.0,'1111122,1111122,1111122' 
SCCF RECON,ioos:station:SCCF:53:1,2015-12-01T02:45:00Z,26.6493,-81.8810,2.11,4.0,50.8,-9999.0,'1111122,1111122,1111122' 
SCCF RECON,ioos:station:SCCF:53:1,2015-12-01T03:00:00Z,26.6493,-81.8810,2.11,3.9,45.2,-9999.0,'1111122,1111122,1111122' 
SCCF RECON,ioos:station:SCCF:53:1,2015-12-01T03:15:00Z,26.6493,-81.8810,2.11,4.0,44.0,-9999.0,'1111122,1111122,1111122' 
SCCF RECON,ioos:station:SCCF:53:1,2015-12-01T03:30:00Z,26.6493,-81.8810,2.11,3.3,45.4,-9999.0,'1111122,1111122,1111122' 
SCCF RECON,ioos:station:SCCF:53:1,2015-12-01T03:45:00Z,26.6493,-81.8810,2.11,3.2,44.8,-9999.0,'1111122,1111122,1111122' 
SCCF RECON,ioos:station:SCCF:53:1,2015-12-01T04:00:00Z,26.6493,-81.8810,2.11,3.3,46.4,-9999.0,'1111122,1111122,1111122' 
SCCF RECON,ioos:station:SCCF:53:1,2015-12-01T04:15:00Z,26.6493,-81.8810,2.11,3.4,39.7,-9999.0,'1111122,1111122,1111122' 
SCCF RECON,ioos:station:SCCF:53:1,2015-12-01T04:30:00Z,26.6493,-81.8810,2.11,2.9,46.9,-9999.0,'1111122,1111122,1111122' 
SCCF RECON,ioos:station:SCCF:53:1,2015-12-01T04:45:00Z,26.6493,-81.8810,2.11,3.2,42.1,-9999.0,'1111122,1111122,1111122' 
SCCF RECON,ioos:station:SCCF:53:1,2015-12-01T05:00:00Z,26.6493,-81.8810,2.11,3.0,48.5,-9999.0,'1111122,1111122,1111122' 
SCCF RECON,ioos:station:SCCF:53:1,2015-12-01T05:15:00Z,26.6493,-81.8810,2.11,3.9,45.1,-9999.0,'1111122,1111122,1111122' 
SCCF RECON,ioos:station:SCCF:53:1,2015-12-01T05:30:00Z,26.6493,-81.8810,2.11,3.1,70.2,-9999.0,'1111122,1111122,1111122' 
SCCF RECON,ioos:station:SCCF:53:1,2015-12-01T05:45:00Z,26.6493,-81.8810,2.11,3.4,73.4,-9999.0,'1111122,1111122,1111122' 
SCCF RECON,ioos:station:SCCF:53:1,2015-12-01T06:00:00Z,26.6493,-81.8810,2.11,2.7,46.5,-9999.0,'1111122,1111122,1111122' 
SCCF RECON,ioos:station:SCCF:53:1,2015-12-01T06:15:00Z,26.6493,-81.8810,2.11,2.8,63.9,-9999.0,'1111122,1111122,1111122' 
SCCF RECON,ioos:station:SCCF:53:1,2015-12-01T06:30:00Z,26.6493,-81.8810,2.11,2.7,66.3,-9999.0,'1111122,1111122,1111122' 
SCCF RECON,ioos:station:SCCF:53:1,2015-12-01T06:45:00Z,26.6493,-81.8810,2.11,2.3,69.5,-9999.0,'1111122,1111122,1111122' 
SCCF RECON,ioos:station:SCCF:53:1,2015-12-01T07:00:00Z,26.6493,-81.8810,2.11,2.5,41.3,-9999.0,'1111122,1111122,1111122' 
SCCF RECON,ioos:station:SCCF:53:1,2015-12-01T07:15:00Z,26.6493,-81.8810,2.11,2.5,62.1,-9999.0,'1111122,1111122,1111122' 
SCCF RECON,ioos:station:SCCF:53:1,2015-12-01T07:30:00Z,26.6493,-81.8810,2.11,3.1,51.2,-9999.0,'1111122,1111122,1111122' 
SCCF RECON,ioos:station:SCCF:53:1,2015-12-01T07:45:00Z,26.6493,-81.8810,2.11,3.0,57.0,-9999.0,'1111122,1111122,1111122' 
SCCF RECON,ioos:station:SCCF:53:1,2015-12-01T08:00:00Z,26.6493,-81.8810,2.11,3.8,49.9,-9999.0,'1111122,1111122,1111122' 
SCCF RECON,ioos:station:SCCF:53:1,2015-12-01T08:15:00Z,26.6493,-81.8810,2.11,2.8,61.3,-9999.0,'1111122,1111122,1111122' 
SCCF RECON,ioos:station:SCCF:53:1,2015-12-01T08:30:00Z,26.6493,-81.8810,2.11,2.8,55.9,-9999.0,'1111122,1111122,1111122' 
SCCF RECON,ioos:station:SCCF:53:1,2015-12-01T08:45:00Z,26.6493,-81.8810,2.11,3.3,58.9,-9999.0,'1111122,1111122,1111122' 
SCCF RECON,ioos:station:SCCF:53:1,2015-12-01T09:00:00Z,26.6493,-81.8810,2.11,1.9,76.2,-9999.0,'1111122,1111122,1111122' 
SCCF RECON,ioos:station:SCCF:53:1,2015-12-01T09:15:00Z,26.6493,-81.8810,2.11,2.4,78.7,-9999.0,'1111122,1111122,1111122' 
SCCF RECON,ioos:station:SCCF:53:1,2015-12-01T09:30:00Z,26.6493,-81.8810,2.11,2.6,75.4,-9999.0,'1111122,1111122,1111122' 
SCCF RECON,ioos:station:SCCF:53:1,2015-12-01T09:45:00Z,26.6493,-81.8810,2.11,3.0,76.9,-9999.0,'1111122,1111122,1111122' 
SCCF RECON,ioos:station:SCCF:53:1,2015-12-01T10:00:00Z,26.6493,-81.8810,2.11,3.1,51.4,-9999.0,'1111122,1111122,1111122' 
SCCF RECON,ioos:station:SCCF:53:1,2015-12-01T10:15:00Z,26.6493,-81.8810,2.11,2.4,51.3,-9999.0,'1111122,1111122,1111122' 
SCCF RECON,ioos:station:SCCF:53:1,2015-12-01T10:30:00Z,26.6493,-81.8810,2.11,3.3,60.7,-9999.0,'1111122,1111122,1111122' 
SCCF RECON,ioos:station:SCCF:53:1,2015-12-01T10:45:00Z,26.6493,-81.8810,2.11,2.3,54.0,-9999.0,'1111122,1111122,1111122' 
SCCF RECON,ioos:station:SCCF:53:1,2015-12-01T11:00:00Z,26.6493,-81.8810,2.11,3.2,54.3,-9999.0,'1111122,1111122,1111122' 
SCCF RECON,ioos:station:SCCF:53:1,2015-12-01T11:15:00Z,26.6493,-81.8810,2.11,2.2,46.3,-9999.0,'1111122,1111122,1111122' 
SCCF RECON,ioos:station:SCCF:53:1,2015-12-01T11:30:00Z,26.6493,-81.8810,2.11,2.7,34.6,-9999.0,'1111122,1111122,1111122' 
SCCF RECON,ioos:station:SCCF:53:1,2015-12-01T11:45:00Z,26.6493,-81.8810,2.11,2.9,37.3,-9999.0,'1111122,1111122,1111122' 
SCCF RECON,ioos:station:SCCF:53:1,2015-12-01T12:00:00Z,26.6493,-81.8810,2.11,3.0,39.8,-9999.0,'1111122,1111122,1111122' 
SCCF RECON,ioos:station:SCCF:53:1,2015-12-01T12:15:00Z,26.6493,-81.8810,2.11,2.0,52.0,-9999.0,'1111122,1111122,1111122' 
SCCF RECON,ioos:station:SCCF:53:1,2015-12-01T12:30:00Z,26.6493,-81.8810,2.11,2.5,51.3,-9999.0,'1111122,1111122,1111122' 
SCCF RECON,ioos:station:SCCF:53:1,2015-12-01T12:45:00Z,26.6493,-81.8810,2.11,2.4,48.6,-9999.0,'1111122,1111122,1111122' 
SCCF RECON,ioos:station:SCCF:53:1,2015-12-01T13:00:00Z,26.6493,-81.8810,2.11,3.2,53.8,-9999.0,'1111122,1111122,1111122' 
SCCF RECON,ioos:station:SCCF:53:1,2015-12-01T13:15:00Z,26.6493,-81.8810,2.11,2.5,54.8,-9999.0,'1111122,1111122,1111122' 
SCCF RECON,ioos:station:SCCF:53:1,2015-12-01T13:30:00Z,26.6493,-81.8810,2.11,2.4,35.5,-9999.0,'1111122,1111122,1111122' 
SCCF RECON,ioos:station:SCCF:53:1,2015-12-01T13:45:00Z,26.6493,-81.8810,2.11,3.0,36.3,-9999.0,'1111122,1111122,1111122' 
SCCF RECON,ioos:station:SCCF:53:1,2015-12-01T14:00:00Z,26.6493,-81.8810,2.11,2.3,33.9,-9999.0,'1111122,1111122,1111122' 
SCCF RECON,ioos:station:SCCF:53:1,2015-12-01T14:15:00Z,26.6493,-81.8810,2.11,2.5,29.2,-9999.0,'1111122,1111122,1111122' 
SCCF RECON,ioos:station:SCCF:53:1,2015-12-01T14:30:00Z,26.6493,-81.8810,2.11,2.9,32.6,-9999.0,'1111122,1111122,1111122' 
SCCF RECON,ioos:station:SCCF:53:1,2015-12-01T14:45:00Z,26.6493,-81.8810,2.11,2.4,41.6,-9999.0,'1111122,1111122,1111122' 
SCCF RECON,ioos:station:SCCF:53:1,2015-12-01T15:00:00Z,26.6493,-81.8810,2.11,2.1,36.6,-9999.0,'1111122,1111122,1111122' 
SCCF RECON,ioos:station:SCCF:53:1,2015-12-01T15:15:00Z,26.6493,-81.8810,2.11,1.1,80.2,-9999.0,'1111122,1111122,1111122' 
SCCF RECON,ioos:station:SCCF:53:1,2015-12-01T15:30:00Z,26.6493,-81.8810,2.11,2.0,57.8,-9999.0,'1111122,1111122,1111122' 
SCCF RECON,ioos:station:SCCF:53:1,2015-12-01T15:45:00Z,26.6493,-81.8810,2.11,3.0,69.6,-9999.0,'1111122,1111122,1111122' 
SCCF RECON,ioos:station:SCCF:53:1,2015-12-01T16:00:00Z,26.6493,-81.8810,2.11,2.1,158.3,-9999.0,'1111122,1111122,1111122' 
SCCF RECON,ioos:station:SCCF:53:1,2015-12-01T16:15:00Z,26.6493,-81.8810,2.11,2.3,149.3,-9999.0,'1111122,1111122,1111122' 
SCCF RECON,ioos:station:SCCF:53:1,2015-12-01T16:30:00Z,26.6493,-81.8810,2.11,3.2,69.6,-9999.0,'1111122,1111122,1111122' 
SCCF RECON,ioos:station:SCCF:53:1,2015-12-01T16:45:00Z,26.6493,-81.8810,2.11,3.5,88.2,-9999.0,'1111122,1111122,1111122' 
SCCF RECON,ioos:station:SCCF:53:1,2015-12-01T17:00:00Z,26.6493,-81.8810,2.11,2.0,87.4,-9999.0,'1111122,1111122,1111122' 
SCCF RECON,ioos:station:SCCF:53:1,2015-12-01T17:15:00Z,26.6493,-81.8810,2.11,1.9,112.0,-9999.0,'1111122,1111122,1111122' 
SCCF RECON,ioos:station:SCCF:53:1,2015-12-01T17:30:00Z,26.6493,-81.8810,2.11,3.3,57.6,-9999.0,'1111122,1111122,1111122' 
SCCF RECON,ioos:station:SCCF:53:1,2015-12-01T17:45:00Z,26.6493,-81.8810,2.11,2.9,60.8,-9999.0,'1111122,1111122,1111122' 
SCCF RECON,ioos:station:SCCF:53:1,2015-12-01T18:00:00Z,26.6493,-81.8810,2.11,2.7,61.8,-9999.0,'1111122,1111122,1111122' 
SCCF RECON,ioos:station:SCCF:53:1,2015-12-01T18:15:00Z,26.6493,-81.8810,2.11,3.1,26.6,-9999.0,'1111122,1111122,1111122' 
SCCF RECON,ioos:station:SCCF:53:1,2015-12-01T18:30:00Z,26.6493,-81.8810,2.11,2.4,36.0,-9999.0,'1111122,1111122,1111122' 
SCCF RECON,ioos:station:SCCF:53:1,2015-12-01T18:45:00Z,26.6493,-81.8810,2.11,2.9,28.3,-9999.0,'1111122,1111122,1111122' 
SCCF RECON,ioos:station:SCCF:53:1,2015-12-01T19:00:00Z,26.6493,-81.8810,2.11,2.6,70.8,-9999.0,'1111122,1111122,1111122' 
SCCF RECON,ioos:station:SCCF:53:1,2015-12-01T19:15:00Z,26.6493,-81.8810,2.11,3.4,39.8,-9999.0,'1111122,1111122,1111122' 
SCCF RECON,ioos:station:SCCF:53:1,2015-12-01T19:30:00Z,26.6493,-81.8810,2.11,3.4,56.4,-9999.0,'1111122,1111122,1111122' 
SCCF RECON,ioos:station:SCCF:53:1,2015-12-01T19:45:00Z,26.6493,-81.8810,2.11,2.2,70.0,-9999.0,'1111122,1111122,1111122' 
SCCF RECON,ioos:station:SCCF:53:1,2015-12-01T20:00:00Z,26.6493,-81.8810,2.11,2.6,24.5,-9999.0,'1111122,1111122,1111122' 
SCCF RECON,ioos:station:SCCF:53:1,2015-12-01T20:15:00Z,26.6493,-81.8810,2.11,3.2,43.2,-9999.0,'1111122,1111122,1111122' 
SCCF RECON,ioos:station:SCCF:53:1,2015-12-01T20:30:00Z,26.6493,-81.8810,2.11,2.8,45.2,-9999.0,'1111122,1111122,1111122' 
SCCF RECON,ioos:station:SCCF:53:1,2015-12-01T20:45:00Z,26.6493,-81.8810,2.11,3.8,69.1,-9999.0,'1111122,1111122,1111122' 
SCCF RECON,ioos:station:SCCF:53:1,2015-12-01T21:00:00Z,26.6493,-81.8810,2.11,4.5,73.9,-9999.0,'1111122,1111122,1111122' 
SCCF RECON,ioos:station:SCCF:53:1,2015-12-01T21:15:00Z,26.6493,-81.8810,2.11,3.8,71.4,-9999.0,'1111122,1111122,1111122' 
SCCF RECON,ioos:station:SCCF:53:1,2015-12-01T21:30:00Z,26.6493,-81.8810,2.11,3.0,83.5,-9999.0,'1111122,1111122,1111122' 
SCCF RECON,ioos:station:SCCF:53:1,2015-12-01T21:45:00Z,26.6493,-81.8810,2.11,3.4,62.1,-9999.0,'1111122,1111122,1111122' 
SCCF RECON,ioos:station:SCCF:53:1,2015-12-01T22:00:00Z,26.6493,-81.8810,2.11,3.6,56.2,-9999.0,'1111122,1111122,1111122' 
SCCF RECON,ioos:station:SCCF:53:1,2015-12-01T22:15:00Z,26.6493,-81.8810,2.11,3.4,78.2,-9999.0,'1111122,1111122,1111122' 
SCCF RECON,ioos:station:SCCF:53:1,2015-12-01T22:30:00Z,26.6493,-81.8810,2.11,2.8,92.9,-9999.0,'1111122,1111122,1111122' 
SCCF RECON,ioos:station:SCCF:53:1,2015-12-01T22:45:00Z,26.6493,-81.8810,2.11,3.3,69.5,-9999.0,'1111122,1111122,1111122' 
SCCF RECON,ioos:station:SCCF:53:1,2015-12-01T23:00:00Z,26.6493,-81.8810,2.11,2.3,63.8,-9999.0,'1111122,1111122,1111122' 
SCCF RECON,ioos:station:SCCF:53:1,2015-12-01T23:15:00Z,26.6493,-81.8810,2.11,2.6,80.0,-9999.0,'1111122,1111122,1111122' 
SCCF RECON,ioos:station:SCCF:53:1,2015-12-01T23:30:00Z,26.6493,-81.8810,2.11,2.3,74.4,-9999.0,'1111122,1111122,1111122' 
SCCF RECON,ioos:station:SCCF:53:1,2015-12-01T23:45:00Z,26.6493,-81.8810,2.11,2.2,76.6,-9999.0,'1111122,1111122,1111122' 
SCCF RECON,ioos:station:SCCF:53:1,2015-12-02T00:00:00Z,26.6493,-81.8810,2.11,2.9,108.0,-9999.0,'1111122,1111122,1111122' 
SCCF RECON,ioos:station:SCCF:53:1,2015-12-02T00:15:00Z,26.6493,-81.8810,2.11,3.2,103.0,-9999.0,'1111122,1111122,1111122' 
SCCF RECON,ioos:station:SCCF:53:1,2015-12-02T00:30:00Z,26.6493,-81.8810,2.11,2.1,125.2,-9999.0,'1111122,1111122,1111122' 
SCCF RECON,ioos:station:SCCF:53:1,2015-12-02T00:45:00Z,26.6493,-81.8810,2.11,2.1,140.0,-9999.0,'1111122,1111122,1111122' 
SCCF RECON,ioos:station:SCCF:53:1,2015-12-02T01:00:00Z,26.6493,-81.8810,2.11,1.9,84.2,-9999.0,'1111122,1111122,1111122' 
SCCF RECON,ioos:station:SCCF:53:1,2015-12-02T01:15:00Z,26.6493,-81.8810,2.11,2.3,118.7,-9999.0,'1111122,1111122,1111122' 
SCCF RECON,ioos:station:SCCF:53:1,2015-12-02T01:30:00Z,26.6493,-81.8810,2.11,2.3,131.4,-9999.0,'1111122,1111122,1111122' 
SCCF RECON,ioos:station:SCCF:53:1,2015-12-02T01:45:00Z,26.6493,-81.8810,2.11,1.3,136.9,-9999.0,'1111122,1111122,1111122' 
SCCF RECON,ioos:station:SCCF:53:1,2015-12-02T02:00:00Z,26.6493,-81.8810,2.11,1.7,143.1,-9999.0,'1111122,1111122,1111122' 
SCCF RECON,ioos:station:SCCF:53:1,2015-12-02T02:15:00Z,26.6493,-81.8810,2.11,2.1,108.0,-9999.0,'1111122,1111122,1111122' 
SCCF RECON,ioos:station:SCCF:53:1,2015-12-02T02:30:00Z,26.6493,-81.8810,2.11,2.1,125.6,-9999.0,'1111122,1111122,1111122' 
SCCF RECON,ioos:station:SCCF:53:1,2015-12-02T02:45:00Z,26.6493,-81.8810,2.11,2.1,107.0,-9999.0,'1111122,1111122,1111122' 
SCCF RECON,ioos:station:SCCF:53:1,2015-12-02T03:00:00Z,26.6493,-81.8810,2.11,1.8,144.1,-9999.0,'1111122,1111122,1111122' 
SCCF RECON,ioos:station:SCCF:53:1,2015-12-02T03:15:00Z,26.6493,-81.8810,2.11,1.9,115.5,-9999.0,'1111122,1111122,1111122' 
SCCF RECON,ioos:station:SCCF:53:1,2015-12-02T03:30:00Z,26.6493,-81.8810,2.11,1.7,81.1,-9999.0,'1111122,1111122,1111122' 
SCCF RECON,ioos:station:SCCF:53:1,2015-12-02T03:45:00Z,26.6493,-81.8810,2.11,1.6,118.3,-9999.0,'1111122,1111122,1111122' 
SCCF RECON,ioos:station:SCCF:53:1,2015-12-02T04:00:00Z,26.6493,-81.8810,2.11,1.5,94.9,-9999.0,'1111122,1111122,1111122' 
SCCF RECON,ioos:station:SCCF:53:1,2015-12-02T04:15:00Z,26.6493,-81.8810,2.11,1.5,123.1,-9999.0,'1111122,1111122,1111122' 
SCCF RECON,ioos:station:SCCF:53:1,2015-12-02T04:30:00Z,26.6493,-81.8810,2.11,1.2,91.4,-9999.0,'1111122,1111122,1111122' 
SCCF RECON,ioos:station:SCCF:53:1,2015-12-02T04:45:00Z,26.6493,-81.8810,2.11,1.0,76.0,-9999.0,'1111122,1111122,1111122' 
SCCF RECON,ioos:station:SCCF:53:1,2015-12-02T05:00:00Z,26.6493,-81.8810,2.11,1.3,66.0,-9999.0,'1111122,1111122,1111122' 
SCCF RECON,ioos:station:SCCF:53:1,2015-12-02T05:15:00Z,26.6493,-81.8810,2.11,1.5,73.0,-9999.0,'1111122,1111122,1111122' 
SCCF RECON,ioos:station:SCCF:53:1,2015-12-02T05:30:00Z,26.6493,-81.8810,2.11,1.6,103.3,-9999.0,'1111122,1111122,1111122' 
SCCF RECON,ioos:station:SCCF:53:1,2015-12-02T05:45:00Z,26.6493,-81.8810,2.11,1.5,64.5,-9999.0,'1111122,1111122,1111122' 
SCCF RECON,ioos:station:SCCF:53:1,2015-12-02T06:00:00Z,26.6493,-81.8810,2.11,1.0,56.0,-9999.0,'1111122,1111122,1111122' 
SCCF RECON,ioos:station:SCCF:53:1,2015-12-02T06:15:00Z,26.6493,-81.8810,2.11,1.1,73.7,-9999.0,'1111122,1111122,1111122' 
SCCF RECON,ioos:station:SCCF:53:1,2015-12-02T06:30:00Z,26.6493,-81.8810,2.11,1.7,57.1,-9999.0,'1111122,1111122,1111122' 
SCCF RECON,ioos:station:SCCF:53:1,2015-12-02T06:45:00Z,26.6493,-81.8810,2.11,1.5,83.1,-9999.0,'1111122,1111122,1111122' 
SCCF RECON,ioos:station:SCCF:53:1,2015-12-02T07:00:00Z,26.6493,-81.8810,2.11,2.1,63.2,-9999.0,'1111122,1111122,1111122' 
SCCF RECON,ioos:station:SCCF:53:1,2015-12-02T07:15:00Z,26.6493,-81.8810,2.11,1.5,66.2,-9999.0,'1111122,1111122,1111122' 
SCCF RECON,ioos:station:SCCF:53:1,2015-12-02T07:30:00Z,26.6493,-81.8810,2.11,1.9,72.4,-9999.0,'1111122,1111122,1111122' 
SCCF RECON,ioos:station:SCCF:53:1,2015-12-02T07:45:00Z,26.6493,-81.8810,2.11,2.1,48.4,-9999.0,'1111122,1111122,1111122' 
SCCF RECON,ioos:station:SCCF:53:1,2015-12-02T08:00:00Z,26.6493,-81.8810,2.11,1.8,40.2,-9999.0,'1111122,1111122,1111122' 
SCCF RECON,ioos:station:SCCF:53:1,2015-12-02T08:15:00Z,26.6493,-81.8810,2.11,2.0,30.9,-9999.0,'1111122,1111122,1111122' 
SCCF RECON,ioos:station:SCCF:53:1,2015-12-02T08:30:00Z,26.6493,-81.8810,2.11,2.6,32.5,-9999.0,'1111122,1111122,1111122' 
SCCF RECON,ioos:station:SCCF:53:1,2015-12-02T08:45:00Z,26.6493,-81.8810,2.11,2.3,47.5,-9999.0,'1111122,1111122,1111122' 
SCCF RECON,ioos:station:SCCF:53:1,2015-12-02T09:00:00Z,26.6493,-81.8810,2.11,2.5,37.9,-9999.0,'1111122,1111122,1111122' 
SCCF RECON,ioos:station:SCCF:53:1,2015-12-02T09:15:00Z,26.6493,-81.8810,2.11,2.5,64.1,-9999.0,'1111122,1111122,1111122' 
SCCF RECON,ioos:station:SCCF:53:1,2015-12-02T09:30:00Z,26.6493,-81.8810,2.11,2.0,74.4,-9999.0,'1111122,1111122,1111122' 
SCCF RECON,ioos:station:SCCF:53:1,2015-12-02T09:45:00Z,26.6493,-81.8810,2.11,2.1,71.1,-9999.0,'1111122,1111122,1111122' 
SCCF RECON,ioos:station:SCCF:53:1,2015-12-02T10:00:00Z,26.6493,-81.8810,2.11,2.2,78.5,-9999.0,'1111122,1111122,1111122' 
SCCF RECON,ioos:station:SCCF:53:1,2015-12-02T10:15:00Z,26.6493,-81.8810,2.11,2.2,74.5,-9999.0,'1111122,1111122,1111122' 
SCCF RECON,ioos:station:SCCF:53:1,2015-12-02T10:30:00Z,26.6493,-81.8810,2.11,2.1,81.2,-9999.0,'1111122,1111122,1111122' 
SCCF RECON,ioos:station:SCCF:53:1,2015-12-02T10:45:00Z,26.6493,-81.8810,2.11,2.1,68.6,-9999.0,'1111122,1111122,1111122' 
SCCF RECON,ioos:station:SCCF:53:1,2015-12-02T11:00:00Z,26.6493,-81.8810,2.11,2.3,68.5,-9999.0,'1111122,1111122,1111122' 
SCCF RECON,ioos:station:SCCF:53:1,2015-12-02T11:15:00Z,26.6493,-81.8810,2.11,2.3,84.2,-9999.0,'1111122,1111122,1111122' 
SCCF RECON,ioos:station:SCCF:53:1,2015-12-02T11:30:00Z,26.6493,-81.8810,2.11,1.8,88.3,-9999.0,'1111122,1111122,1111122' 
SCCF RECON,ioos:station:SCCF:53:1,2015-12-02T11:45:00Z,26.6493,-81.8810,2.11,1.1,87.2,-9999.0,'1111122,1111122,1111122' 
SCCF RECON,ioos:station:SCCF:53:1,2015-12-02T12:00:00Z,26.6493,-81.8810,2.11,1.6,111.8,-9999.0,'1111122,1111122,1111122' 
SCCF RECON,ioos:station:SCCF:53:1,2015-12-02T12:15:00Z,26.6493,-81.8810,2.11,2.1,89.3,-9999.0,'1111122,1111122,1111122' 
SCCF RECON,ioos:station:SCCF:53:1,2015-12-02T12:30:00Z,26.6493,-81.8810,2.11,2.4,85.9,-9999.0,'1111122,1111122,1111122' 
SCCF RECON,ioos:station:SCCF:53:1,2015-12-02T12:45:00Z,26.6493,-81.8810,2.11,1.9,117.7,-9999.0,'1111122,1111122,1111122' 
SCCF RECON,ioos:station:SCCF:53:1,2015-12-02T13:00:00Z,26.6493,-81.8810,2.11,2.2,94.6,-9999.0,'1111122,1111122,1111122' 
SCCF RECON,ioos:station:SCCF:53:1,2015-12-02T13:15:00Z,26.6493,-81.8810,2.11,2.5,146.7,-9999.0,'1111122,1111122,1111122' 
SCCF RECON,ioos:station:SCCF:53:1,2015-12-02T13:30:00Z,26.6493,-81.8810,2.11,1.4,109.2,-9999.0,'1111122,1111122,1111122' 
SCCF RECON,ioos:station:SCCF:53:1,2015-12-02T13:45:00Z,26.6493,-81.8810,2.11,1.2,112.1,-9999.0,'1111122,1111122,1111122' 
SCCF RECON,ioos:station:SCCF:53:1,2015-12-02T14:00:00Z,26.6493,-81.8810,2.11,1.0,117.2,-9999.0,'1111122,1111122,1111122' 
SCCF RECON,ioos:station:SCCF:53:1,2015-12-02T14:15:00Z,26.6493,-81.8810,2.11,1.8,157.2,-9999.0,'1111122,1111122,1111122' 
SCCF RECON,ioos:station:SCCF:53:1,2015-12-02T14:30:00Z,26.6493,-81.8810,2.11,2.3,154.5,-9999.0,'1111122,1111122,1111122' 
SCCF RECON,ioos:station:SCCF:53:1,2015-12-02T14:45:00Z,26.6493,-81.8810,2.11,3.6,150.0,-9999.0,'1111122,1111122,1111122' 
SCCF RECON,ioos:station:SCCF:53:1,2015-12-02T15:00:00Z,26.6493,-81.8810,2.11,3.8,142.9,-9999.0,'1111122,1111122,1111122' 
SCCF RECON,ioos:station:SCCF:53:1,2015-12-02T15:15:00Z,26.6493,-81.8810,2.11,2.8,179.8,-9999.0,'1111122,1111122,1111122' 
SCCF RECON,ioos:station:SCCF:53:1,2015-12-02T15:30:00Z,26.6493,-81.8810,2.11,3.1,152.4,-9999.0,'1111122,1111122,1111122' 
SCCF RECON,ioos:station:SCCF:53:1,2015-12-02T15:45:00Z,26.6493,-81.8810,2.11,2.9,146.3,-9999.0,'1111122,1111122,1111122' 
SCCF RECON,ioos:station:SCCF:53:1,2015-12-02T16:00:00Z,26.6493,-81.8810,2.11,2.4,146.8,-9999.0,'1111122,1111122,1111122' 
SCCF RECON,ioos:station:SCCF:53:1,2015-12-02T16:15:00Z,26.6493,-81.8810,2.11,2.3,202.9,-9999.0,'1111122,1111122,1111122' 
SCCF RECON,ioos:station:SCCF:53:1,2015-12-02T16:30:00Z,26.6493,-81.8810,2.11,1.4,206.4,-9999.0,'1111122,1111122,1111122' 
SCCF RECON,ioos:station:SCCF:53:1,2015-12-02T16:45:00Z,26.6493,-81.8810,2.11,3.3,207.9,-9999.0,'1111122,1111122,1111122' 
SCCF RECON,ioos:station:SCCF:53:1,2015-12-02T17:00:00Z,26.6493,-81.8810,2.11,2.0,249.4,-9999.0,'1111122,1111122,1111122' 
SCCF RECON,ioos:station:SCCF:53:1,2015-12-02T17:15:00Z,26.6493,-81.8810,2.11,4.1,222.1,-9999.0,'1111122,1111122,1111122' 
SCCF RECON,ioos:station:SCCF:53:1,2015-12-02T17:30:00Z,26.6493,-81.8810,2.11,2.0,242.2,-9999.0,'1111122,1111122,1111122' 
SCCF RECON,ioos:station:SCCF:53:1,2015-12-02T17:45:00Z,26.6493,-81.8810,2.11,3.5,228.8,-9999.0,'1111122,1111122,1111122' 
SCCF RECON,ioos:station:SCCF:53:1,2015-12-02T18:00:00Z,26.6493,-81.8810,2.11,4.0,227.3,-9999.0,'1111122,1111122,1111122' 
SCCF RECON,ioos:station:SCCF:53:1,2015-12-02T18:15:00Z,26.6493,-81.8810,2.11,3.7,225.4,-9999.0,'1111122,1111122,1111122' 
SCCF RECON,ioos:station:SCCF:53:1,2015-12-02T18:30:00Z,26.6493,-81.8810,2.11,3.9,226.9,-9999.0,'1111122,1111122,1111122' 
SCCF RECON,ioos:station:SCCF:53:1,2015-12-02T18:45:00Z,26.6493,-81.8810,2.11,3.3,240.6,-9999.0,'1111122,1111122,1111122' 
SCCF RECON,ioos:station:SCCF:53:1,2015-12-02T19:00:00Z,26.6493,-81.8810,2.11,4.4,230.7,-9999.0,'1111122,1111122,1111122' 
SCCF RECON,ioos:station:SCCF:53:1,2015-12-02T19:15:00Z,26.6493,-81.8810,2.11,5.0,230.1,-9999.0,'1111122,1111122,1111122' 
SCCF RECON,ioos:station:SCCF:53:1,2015-12-02T19:30:00Z,26.6493,-81.8810,2.11,3.6,231.0,-9999.0,'1111122,1111122,1111122' 
SCCF RECON,ioos:station:SCCF:53:1,2015-12-02T19:45:00Z,26.6493,-81.8810,2.11,4.3,219.7,-9999.0,'1111122,1111122,1111122' 
SCCF RECON,ioos:station:SCCF:53:1,2015-12-02T20:00:00Z,26.6493,-81.8810,2.11,4.2,208.4,-9999.0,'1111122,1111122,1111122' 
SCCF RECON,ioos:station:SCCF:53:1,2015-12-02T20:15:00Z,26.6493,-81.8810,2.11,4.2,221.0,-9999.0,'1111122,1111122,1111122' 
SCCF RECON,ioos:station:SCCF:53:1,2015-12-02T20:30:00Z,26.6493,-81.8810,2.11,5.0,211.3,-9999.0,'1111122,1111122,1111122' 
SCCF RECON,ioos:station:SCCF:53:1,2015-12-02T20:45:00Z,26.6493,-81.8810,2.11,5.6,205.6,-9999.0,'1111122,1111122,1111122' 
SCCF RECON,ioos:station:SCCF:53:1,2015-12-02T21:00:00Z,26.6493,-81.8810,2.11,4.4,203.3,-9999.0,'1111122,1111122,1111122' 
SCCF RECON,ioos:station:SCCF:53:1,2015-12-02T21:15:00Z,26.6493,-81.8810,2.11,4.6,213.6,-9999.0,'1111122,1111122,1111122' 
SCCF RECON,ioos:station:SCCF:53:1,2015-12-02T21:30:00Z,26.6493,-81.8810,2.11,4.1,201.1,-9999.0,'1111122,1111122,1111122' 
SCCF RECON,ioos:station:SCCF:53:1,2015-12-02T21:45:00Z,26.6493,-81.8810,2.11,4.2,220.7,-9999.0,'1111122,1111122,1111122' 
SCCF RECON,ioos:station:SCCF:53:1,2015-12-02T22:00:00Z,26.6493,-81.8810,2.11,4.8,218.7,-9999.0,'1111122,1111122,1111122' 
SCCF RECON,ioos:station:SCCF:53:1,2015-12-02T22:15:00Z,26.6493,-81.8810,2.11,3.2,208.3,-9999.0,'1111122,1111122,1111122' 
SCCF RECON,ioos:station:SCCF:53:1,2015-12-02T22:30:00Z,26.6493,-81.8810,2.11,3.6,208.1,-9999.0,'1111122,1111122,1111122' 
SCCF RECON,ioos:station:SCCF:53:1,2015-12-02T22:45:00Z,26.6493,-81.8810,2.11,3.7,201.4,-9999.0,'1111122,1111122,1111122' 
SCCF RECON,ioos:station:SCCF:53:1,2015-12-02T23:00:00Z,26.6493,-81.8810,2.11,3.5,197.2,-9999.0,'1111122,1111122,1111122' 
SCCF RECON,ioos:station:SCCF:53:1,2015-12-02T23:15:00Z,26.6493,-81.8810,2.11,4.1,204.5,-9999.0,'1111122,1111122,1111122' 
SCCF RECON,ioos:station:SCCF:53:1,2015-12-02T23:30:00Z,26.6493,-81.8810,2.11,2.3,197.6,-9999.0,'1111122,1111122,1111122' 
SCCF RECON,ioos:station:SCCF:53:1,2015-12-02T23:45:00Z,26.6493,-81.8810,2.11,3.4,214.8,-9999.0,'1111122,1111122,1111122' 
SCCF RECON,ioos:station:SCCF:53:1,2015-12-03T00:00:00Z,26.6493,-81.8810,2.11,3.1,219.0,-9999.0,'1111122,1111122,1111122' 
SCCF RECON,ioos:station:SCCF:53:1,2015-12-03T00:15:00Z,26.6493,-81.8810,2.11,2.8,215.7,-9999.0,'1111122,1111122,1111122' 
SCCF RECON,ioos:station:SCCF:53:1,2015-12-03T00:30:00Z,26.6493,-81.8810,2.11,3.0,223.9,-9999.0,'1111122,1111122,1111122' 
SCCF RECON,ioos:station:SCCF:53:1,2015-12-03T00:45:00Z,26.6493,-81.8810,2.11,1.5,231.8,-9999.0,'1111122,1111122,1111122' 